TimeEST,TemperatureF,Dew PointF,Humidity,Sea Level PressureIn,VisibilityMPH,Wind Direction,Wind SpeedMPH,Gust SpeedMPH,PrecipitationIn,Events,Conditions,WindDirDegrees,DateUTC
12:54 AM,39.9,32.0,73,30.16,10.0,Calm,Calm,-,N/A,,Clear,0,2013-11-08 05:54:00
1:54 AM,39.9,32.0,73,30.17,10.0,NNW,4.6,-,N/A,,Clear,330,2013-11-08 06:54:00
2:54 AM,37.0,32.0,82,30.18,10.0,Calm,Calm,-,N/A,,Clear,0,2013-11-08 07:54:00
3:54 AM,41.0,34.0,76,30.20,10.0,NNE,4.6,-,N/A,,Clear,30,2013-11-08 08:54:00
4:54 AM,41.0,34.0,76,30.22,10.0,Variable,4.6,-,N/A,,Clear,0,2013-11-08 09:54:00
5:54 AM,39.0,30.9,73,30.24,10.0,NE,5.8,-,N/A,,Clear,40,2013-11-08 10:54:00
6:54 AM,39.9,30.0,68,30.27,10.0,NE,4.6,-,N/A,,Clear,50,2013-11-08 11:54:00
7:54 AM,42.1,30.0,62,30.30,10.0,NNE,8.1,-,N/A,,Clear,30,2013-11-08 12:54:00
8:54 AM,48.0,30.9,52,30.31,10.0,NNE,9.2,-,N/A,,Clear,20,2013-11-08 13:54:00
9:54 AM,51.1,27.0,39,30.33,10.0,NNE,11.5,-,N/A,,Clear,20,2013-11-08 14:54:00
10:54 AM,53.1,28.0,38,30.32,10.0,NNE,9.2,-,N/A,,Clear,30,2013-11-08 15:54:00
11:54 AM,57.0,23.0,27,30.31,10.0,North,11.5,-,N/A,,Clear,360,2013-11-08 16:54:00
12:54 PM,59.0,21.0,23,30.27,10.0,NNE,12.7,-,N/A,,Clear,20,2013-11-08 17:54:00
1:54 PM,59.0,21.0,23,30.25,10.0,North,9.2,-,N/A,,Clear,10,2013-11-08 18:54:00
2:54 PM,60.1,21.0,22,30.25,10.0,Variable,5.8,-,N/A,,Clear,0,2013-11-08 19:54:00
3:54 PM,59.0,19.0,21,30.25,10.0,Variable,3.5,-,N/A,,Clear,0,2013-11-08 20:54:00
4:54 PM,55.9,23.0,28,30.25,10.0,NE,3.5,-,N/A,,Clear,50,2013-11-08 21:54:00
5:54 PM,45.0,30.0,56,30.27,10.0,Calm,Calm,-,N/A,,Clear,0,2013-11-08 22:54:00
6:54 PM,43.0,30.0,60,30.29,10.0,Calm,Calm,-,N/A,,Clear,0,2013-11-08 23:54:00
7:54 PM,39.0,30.9,73,30.30,10.0,Calm,Calm,-,N/A,,Clear,0,2013-11-09 00:54:00
8:54 PM,37.9,32.0,79,30.32,10.0,Calm,Calm,-,N/A,,Clear,0,2013-11-09 01:54:00
9:54 PM,39.0,30.9,73,30.33,10.0,Calm,Calm,-,N/A,,Clear,0,2013-11-09 02:54:00
10:54 PM,36.0,30.9,82,30.34,10.0,Calm,Calm,-,N/A,,Clear,0,2013-11-09 03:54:00
11:54 PM,35.1,30.0,82,30.32,10.0,Calm,Calm,-,N/A,,Clear,0,2013-11-09 04:54:00